SCP
0 0 0 0 0 0 0 0 0 0 0 0 0 0 0 0 0 0 0 0 0 0 0 0 0 0 0 0 0 0 0 0 0 0 0 0 0 0 0 0 1 1 1
0 0 0 0 0 0 0 0 0 0 0 0 0 0 0 0 0 0 0 0 0 0 0 0 0 0 0 0 0 0 0 0 0 0 0 0 1 1 0 0 0 1 1
0 0 0 0 0 0 0 0 0 0 0 0 0 0 0 0 0 0 0 0 0 0 0 0 0 0 0 0 0 0 0 0 0 0 0 0 0 0 0 0 0 0 1
0 0 0 0 0 0 0 0 0 0 0 0 0 0 0 0 0 0 0 0 0 0 0 0 0 0 0 0 0 0 0 0 0 0 0 0 0 0 0 0 0 0 1
0 0 0 0 0 0 0 0 0 0 0 0 0 0 0 0 0 0 0 0 0 0 0 0 0 0 0 0 0 0 0 0 0 0 0 0 0 0 0 0 1 0 0
0 0 0 0 0 0 0 0 0 0 0 0 0 0 0 0 0 0 0 0 0 0 0 0 0 0 0 0 0 0 0 0 0 0 0 0 0 0 0 0 0 0 0
0 0 0 0 0 0 0 0 0 0 0 0 0 0 0 0 0 0 0 0 0 0 0 0 0 0 0 0 0 0 0 0 0 0 0 0 0 0 0 0 0 0 1
0 0 0 0 0 0 0 0 0 0 0 0 0 0 0 0 0 0 0 0 0 0 0 0 0 0 0 0 0 0 0 0 0 0 0 0 0 0 0 0 0 0 0
0 0 0 0 0 0 0 0 0 0 0 0 0 0 0 0 0 0 0 0 0 0 0 0 0 0 0 0 0 0 0 0 0 0 0 0 0 0 0 0 0 0 0
0 0 0 0 0 0 0 0 0 0 0 0 0 0 0 0 0 0 0 0 0 0 0 0 0 0 0 0 0 0 0 0 0 0 0 0 0 0 0 0 0 0 0
0 0 0 0 0 0 0 0 0 0 0 0 0 0 0 0 0 0 0 0 0 0 0 0 0 0 0 0 0 0 0 0 0 0 0 0 0 0 0 0 0 0 0
0 0 0 0 0 0 0 0 0 0 0 0 0 0 0 0 0 0 0 0 0 0 0 0 0 0 0 0 0 0 0 0 0 0 0 0 0 0 0 0 0 0 0
0 0 0 0 0 0 0 0 0 0 0 0 0 0 0 0 0 0 0 0 0 0 0 0 0 0 0 0 0 0 0 0 0 0 0 0 0 0 0 0 0 0 0
0 0 0 0 0 0 0 0 0 0 0 0 0 0 0 0 0 0 0 0 0 0 0 0 0 0 0 0 0 0 0 0 0 0 0 0 0 0 0 0 0 0 0
0 0 0 0 0 0 0 0 0 0 0 0 0 0 0 0 0 0 0 0 0 0 0 0 0 0 0 0 0 0 0 0 0 0 0 0 0 0 0 0 0 0 0
0 0 0 0 0 0 0 0 0 0 0 0 0 0 0 0 0 0 0 0 0 0 0 0 0 0 0 0 0 0 0 0 0 0 0 0 0 0 0 0 0 0 0
0 0 0 0 0 0 0 0 0 0 0 0 0 0 0 0 0 0 0 0 0 0 0 0 0 0 0 0 0 0 0 0 0 0 0 0 0 0 0 0 0 0 0
0 0 0 0 0 0 0 0 0 0 0 0 0 0 0 0 0 0 0 0 0 0 0 0 0 0 0 0 0 0 0 0 0 0 0 0 0 0 0 0 0 0 0
0 0 0 0 0 0 0 0 0 0 0 0 0 0 0 0 0 0 0 0 0 0 0 0 0 0 0 0 0 0 0 0 0 0 0 0 0 0 0 0 0 0 0
0 0 0 0 0 0 0 0 0 0 0 0 0 0 0 0 0 0 0 0 0 0 0 0 0 0 0 0 0 0 0 0 0 0 0 0 0 0 0 0 0 0 0
0 0 0 0 0 0 0 0 0 0 0 0 0 0 0 0 0 0 0 0 0 0 0 0 0 0 0 0 0 0 0 0 0 0 0 0 0 0 0 0 0 0 0
0 0 0 0 0 0 0 0 0 0 0 0 0 0 0 0 0 0 0 0 0 0 0 0 0 0 0 0 0 0 0 0 0 0 0 0 0 0 0 0 0 0 0
0 0 0 0 0 0 0 0 0 0 0 0 0 0 0 0 0 0 0 0 0 0 0 0 0 0 0 0 0 0 0 0 0 0 0 0 0 0 0 0 0 0 0
0 0 0 0 0 0 0 0 0 0 0 0 0 0 0 0 0 0 0 0 0 0 0 0 0 0 0 0 0 0 0 0 0 0 0 0 0 0 0 0 0 0 0
0 0 0 0 0 0 0 0 0 0 0 0 0 0 0 0 0 0 0 0 0 0 0 0 0 -0 -0 -0 -0 0 0 0 0 0 0 0 0 0 0 0 0 0 0
0 0 0 0 0 0 0 0 0 0 0 0 0 0 0 0 0 0 0 0 0 0 0 0 0 0 -0 -0 -0 -0 0 0 0 0 0 0 0 0 0 0 0 0 0
Wind_Speed_500mb
31 31 31 32 32 35 40 38 33 27 19 15 16 17 18 18 18 16 11 13 14 12 17 25 30 30 28 28 29 31 32 36 41 40 41 45 49 50 49 48 48 46 43
31 30 31 32 32 36 38 40 38 33 25 15 12 15 15 14 15 19 18 16 17 18 24 29 29 29 27 24 24 26 30 32 38 41 44 44 47 48 50 50 50 49 47
32 34 33 32 35 36 38 38 34 32 30 20 12 9 10 8 13 18 18 17 18 24 30 30 28 28 27 26 26 26 28 30 30 36 41 44 45 47 51 53 53 52 50
29 34 38 38 35 36 38 39 38 34 29 20 8 2 9 11 12 13 15 18 23 28 30 32 30 29 28 27 26 28 28 31 29 30 36 43 46 45 47 49 52 52 53
26 31 36 40 37 35 37 39 37 36 30 18 8 3 8 10 11 12 16 21 24 29 30 28 28 27 27 27 26 26 26 27 27 29 32 37 40 45 48 48 49 51 54
25 28 33 38 36 32 32 35 36 33 30 14 2 2 5 8 10 12 16 20 25 28 32 31 30 24 26 25 25 25 23 19 21 22 21 27 30 36 45 50 54 59 61
25 26 30 37 36 31 30 33 36 33 29 23 10 16 18 19 16 16 19 18 22 29 32 31 27 26 24 26 26 24 22 21 23 22 23 21 22 28 33 39 52 49 53
25 25 25 31 34 29 28 29 29 30 28 31 27 14 10 9 10 26 24 27 31 36 36 31 28 26 25 26 28 27 27 26 25 21 22 23 26 28 30 34 39 50 48
26 25 23 25 30 30 26 27 26 25 25 26 27 18 13 13 30 12 20 21 31 33 34 33 28 25 25 26 28 29 30 29 28 28 27 26 24 26 28 29 31 37 42
23 23 22 23 26 27 25 22 23 25 25 19 19 23 21 20 15 20 21 25 28 28 29 30 28 25 25 27 27 27 27 29 28 29 30 28 31 29 25 26 28 31 35
24 23 22 23 24 24 24 24 19 19 22 24 19 20 22 19 24 22 39 36 34 28 26 25 27 23 24 27 28 25 25 26 29 30 29 31 34 34 33 30 29 29 26
26 23 20 21 23 24 25 24 23 21 25 28 29 30 28 25 26 29 36 44 47 39 34 23 28 29 32 27 26 27 28 30 30 30 31 30 33 34 35 34 28 30 25
21 17 19 21 23 25 26 28 29 30 31 34 35 36 37 39 37 41 38 45 47 47 41 33 23 28 33 35 34 35 35 35 33 36 34 32 31 31 33 34 28 28 30
18 18 20 22 24 27 29 32 35 35 37 40 44 46 50 47 45 50 50 47 56 54 47 46 36 30 27 31 34 34 38 38 36 35 35 34 33 30 27 26 23 28 23
20 22 24 26 28 31 34 36 40 40 42 45 48 50 54 57 58 63 64 65 64 64 64 52 46 33 38 40 39 38 40 36 38 39 39 37 34 32 30 29 26 23 22
23 26 27 30 32 34 35 39 43 46 48 50 55 59 62 65 67 74 81 71 74 81 81 61 60 56 62 57 48 41 39 36 37 40 41 37 36 35 34 32 33 29 27
25 29 30 33 35 37 38 41 44 48 53 57 60 62 64 63 68 65 69 75 82 86 94 89 86 82 78 71 56 47 44 41 38 39 40 37 37 36 35 33 32 32 30
26 32 37 40 42 44 47 51 54 56 59 62 68 63 59 55 58 57 60 67 71 68 73 81 83 82 92 77 62 53 49 42 38 38 36 40 39 36 33 32 31 30 28
29 36 42 45 47 49 52 55 58 57 54 49 47 46 51 51 55 57 58 58 58 65 72 86 85 71 69 72 59 60 52 45 41 41 36 35 40 40 36 33 32 33 34
34 40 42 43 44 47 48 47 44 40 42 43 42 44 46 51 54 54 56 62 64 66 71 75 79 74 61 69 70 51 51 50 38 33 38 32 31 37 36 36 36 35 34
38 39 41 40 39 40 40 40 38 37 42 43 44 48 55 60 62 62 63 60 62 61 62 64 66 63 72 63 67 57 55 53 36 36 30 26 26 27 29 35 37 37 33
33 33 33 36 36 31 31 34 38 43 49 52 58 61 62 60 58 60 60 59 58 59 61 59 58 58 67 73 58 45 60 49 36 31 32 29 30 28 25 23 29 27 32
30 30 28 27 27 28 32 39 45 51 56 55 55 58 59 53 54 60 61 59 57 52 50 48 53 54 49 44 43 49 55 53 34 26 21 24 27 25 25 27 28 26 22
25 25 27 26 28 33 39 44 50 47 48 51 54 57 58 60 58 62 63 58 55 55 52 53 51 48 46 44 38 44 51 48 41 31 30 29 22 23 23 22 23 24 22
25 22 22 25 31 38 45 47 47 53 56 58 57 57 56 55 54 56 59 58 57 54 51 52 49 44 40 35 38 45 29 31 33 32 31 32 31 24 22 20 23 25 19
21 20 25 31 37 41 44 48 54 59 61 63 58 57 56 55 51 50 56 53 56 57 56 54 47 42 36 28 23 8 31 47 45 26 29 27 17 24 17 19 24 23 20
Wind_Direction_500mb
9 2 359 357 358 354 347 347 347 341 326 305 277 269 267 279 272 254 247 257 261 282 309 318 319 312 305 287 272 269 272 266 264 266 261 257 256 259 261 261 259 260 263
17 13 7 3 360 357 358 354 351 349 341 323 301 268 272 282 250 241 242 258 272 293 304 309 311 314 308 301 292 279 272 274 267 261 263 261 257 257 259 260 260 259 259
17 14 12 6 0 2 3 1 357 354 349 336 314 276 260 252 230 226 234 246 270 289 297 300 302 304 304 304 296 288 284 283 281 268 265 263 261 256 255 259 260 258 256
12 12 10 7 1 1 5 2 1 4 360 355 345 219 192 191 206 224 249 270 286 294 298 300 300 298 296 295 298 295 292 290 281 278 272 268 265 262 260 259 260 261 259
2 6 7 5 0 2 5 8 6 6 9 10 31 143 183 200 220 252 277 291 299 305 305 305 303 295 293 291 294 295 291 292 290 286 275 275 276 274 268 264 258 261 262
349 355 360 3 360 0 6 11 12 10 12 2 17 195 227 241 255 279 290 300 309 313 310 307 308 295 285 287 290 295 289 291 300 306 299 292 285 279 274 272 272 266 261
334 342 352 358 358 359 2 4 6 15 17 14 336 283 277 278 274 300 295 305 313 314 312 311 310 305 289 288 287 287 282 279 290 300 307 306 303 296 287 281 271 270 267
320 329 338 351 356 359 358 357 4 12 13 17 12 352 331 317 297 292 275 287 305 307 306 306 301 295 293 286 283 281 275 271 273 281 300 307 304 301 307 296 293 277 271
312 317 321 339 350 359 357 358 359 2 7 11 21 27 347 340 333 338 314 308 316 312 300 303 297 292 282 285 286 280 268 264 264 271 284 294 305 306 310 301 292 295 278
313 312 311 320 339 348 354 351 356 2 1 351 357 359 356 343 337 324 323 334 342 337 306 298 297 289 280 282 285 281 270 266 264 267 275 284 285 291 299 319 300 283 287
317 314 319 306 322 330 337 343 335 339 342 348 331 325 323 315 314 302 311 319 322 323 328 300 300 288 286 282 282 278 272 272 271 268 270 281 284 282 286 286 318 293 267
318 318 313 312 310 314 322 324 329 323 319 320 321 319 311 300 303 296 301 309 311 319 312 310 295 286 284 284 281 276 275 275 273 267 271 280 283 277 276 284 291 298 297
328 320 316 322 323 310 309 312 313 311 309 308 307 304 298 298 292 297 293 299 301 309 309 305 291 295 281 280 279 276 275 274 273 267 270 279 278 278 276 277 282 299 277
331 324 321 322 322 315 311 308 306 306 306 304 302 300 299 292 289 290 288 290 293 294 292 297 295 289 288 284 280 278 276 273 270 265 266 273 275 272 274 275 276 274 305
337 330 326 323 320 316 315 312 308 309 307 305 302 302 300 299 294 294 292 290 286 285 288 290 284 283 290 288 287 285 273 278 267 266 269 267 267 267 266 268 272 274 272
331 327 326 321 320 318 316 312 310 312 309 307 304 302 299 296 291 291 289 285 282 285 275 273 278 279 291 291 278 280 276 271 270 267 269 267 264 264 264 264 264 265 267
322 321 322 320 319 319 318 313 311 310 308 307 305 305 307 308 306 308 303 294 285 282 281 286 278 278 278 282 276 267 272 271 267 265 264 265 261 264 261 263 263 260 261
323 320 316 314 314 314 314 311 309 308 306 307 304 301 309 311 315 313 313 309 300 302 292 294 295 291 276 265 270 268 264 268 263 260 263 263 261 258 260 258 258 254 253
316 318 319 318 316 314 311 311 311 310 312 322 321 315 313 317 321 324 320 316 308 302 293 290 299 303 289 283 274 257 258 260 264 255 259 260 255 256 257 256 257 256 257
320 320 320 319 320 320 321 328 335 335 332 331 326 321 318 320 321 317 314 314 313 310 309 292 282 299 291 283 295 241 255 254 254 247 250 251 256 251 252 254 258 255 256
321 322 324 328 333 336 335 335 337 337 334 333 329 325 321 319 316 316 318 316 314 313 313 306 300 286 289 280 282 243 244 247 243 242 238 242 241 242 252 254 259 257 254
331 337 339 338 338 344 348 344 342 341 338 334 329 325 323 322 320 316 316 319 318 314 313 309 305 296 298 289 277 246 259 250 228 235 231 234 240 237 233 250 254 253 255
346 349 354 359 356 355 350 345 341 336 334 336 337 334 331 330 328 322 321 320 319 318 319 316 303 299 298 311 303 265 248 239 222 224 218 221 228 233 237 258 262 246 252
9 5 358 1 358 352 343 336 333 337 341 343 342 341 339 338 336 331 329 328 324 324 327 325 316 307 291 296 297 294 258 234 220 226 226 226 223 235 236 255 244 235 243
2 3 6 3 354 346 341 341 347 351 352 350 350 348 343 340 339 333 329 329 327 326 327 329 332 317 305 292 287 283 211 220 216 215 224 227 233 234 230 236 233 225 242
13 17 5 355 351 349 349 351 352 352 352 351 352 357 2 355 338 339 335 329 329 330 329 329 335 341 331 313 260 260 272 223 232 217 235 212 225 218 219 223 206 220 224
Wind_Speed_850mb
31 31 31 32 32 35 40 38 33 27 19 15 16 17 18 18 18 16 11 13 14 12 17 25 30 30 28 28 29 31 32 36 41 40 41 45 49 50 49 48 48 46 43
31 30 31 32 32 36 38 40 38 33 25 15 12 15 15 14 15 19 18 16 17 18 24 29 29 29 27 24 24 26 30 32 38 41 44 44 47 48 50 50 50 49 47
32 34 33 32 35 36 38 38 34 32 30 20 12 9 10 8 13 18 18 17 18 24 30 30 28 28 27 26 26 26 28 30 30 36 41 44 45 47 51 53 53 52 50
29 34 38 38 35 36 38 39 38 34 29 20 8 2 9 11 12 13 15 18 23 28 30 32 30 29 28 27 26 28 28 31 29 30 36 43 46 45 47 49 52 52 53
26 31 36 40 37 35 37 39 37 36 30 18 8 3 8 10 11 12 16 21 24 29 30 28 28 27 27 27 26 26 26 27 27 29 32 37 40 45 48 48 49 51 54
25 28 33 38 36 32 32 35 36 33 30 14 2 2 5 8 10 12 16 20 25 28 32 31 30 24 26 25 25 25 23 19 21 22 21 27 30 36 45 50 54 59 61
25 26 30 37 36 31 30 33 36 33 29 23 10 16 18 19 16 16 19 18 22 29 32 31 27 26 24 26 26 24 22 21 23 22 23 21 22 28 33 39 52 49 53
25 25 25 31 34 29 28 29 29 30 28 31 27 14 10 9 10 26 24 27 31 36 36 31 28 26 25 26 28 27 27 26 25 21 22 23 26 28 30 34 39 50 48
26 25 23 25 30 30 26 27 26 25 25 26 27 18 13 13 30 12 20 21 31 33 34 33 28 25 25 26 28 29 30 29 28 28 27 26 24 26 28 29 31 37 42
23 23 22 23 26 27 25 22 23 25 25 19 19 23 21 20 15 20 21 25 28 28 29 30 28 25 25 27 27 27 27 29 28 29 30 28 31 29 25 26 28 31 35
24 23 22 23 24 24 24 24 19 19 22 24 19 20 22 19 24 22 39 36 34 28 26 25 27 23 24 27 28 25 25 26 29 30 29 31 34 34 33 30 29 29 26
26 23 20 21 23 24 25 24 23 21 25 28 29 30 28 25 26 29 36 44 47 39 34 23 28 29 32 27 26 27 28 30 30 30 31 30 33 34 35 34 28 30 25
21 17 19 21 23 25 26 28 29 30 31 34 35 36 37 39 37 41 38 45 47 47 41 33 23 28 33 35 34 35 35 35 33 36 34 32 31 31 33 34 28 28 30
18 18 20 22 24 27 29 32 35 35 37 40 44 46 50 47 45 50 50 47 56 54 47 46 36 30 27 31 34 34 38 38 36 35 35 34 33 30 27 26 23 28 23
20 22 24 26 28 31 34 36 40 40 42 45 48 50 54 57 58 63 64 65 64 64 64 52 46 33 38 40 39 38 40 36 38 39 39 37 34 32 30 29 26 23 22
23 26 27 30 32 34 35 39 43 46 48 50 55 59 62 65 67 74 81 71 74 81 81 61 60 56 62 57 48 41 39 36 37 40 41 37 36 35 34 32 33 29 27
25 29 30 33 35 37 38 41 44 48 53 57 60 62 64 63 68 65 69 75 82 86 94 89 86 82 78 71 56 47 44 41 38 39 40 37 37 36 35 33 32 32 30
26 32 37 40 42 44 47 51 54 56 59 62 68 63 59 55 58 57 60 67 71 68 73 81 83 82 92 77 62 53 49 42 38 38 36 40 39 36 33 32 31 30 28
29 36 42 45 47 49 52 55 58 57 54 49 47 46 51 51 55 57 58 58 58 65 72 86 85 71 69 72 59 60 52 45 41 41 36 35 40 40 36 33 32 33 34
34 40 42 43 44 47 48 47 44 40 42 43 42 44 46 51 54 54 56 62 64 66 71 75 79 74 61 69 70 51 51 50 38 33 38 32 31 37 36 36 36 35 34
38 39 41 40 39 40 40 40 38 37 42 43 44 48 55 60 62 62 63 60 62 61 62 64 66 63 72 63 67 57 55 53 36 36 30 26 26 27 29 35 37 37 33
33 33 33 36 36 31 31 34 38 43 49 52 58 61 62 60 58 60 60 59 58 59 61 59 58 58 67 73 58 45 60 49 36 31 32 29 30 28 25 23 29 27 32
30 30 28 27 27 28 32 39 45 51 56 55 55 58 59 53 54 60 61 59 57 52 50 48 53 54 49 44 43 49 55 53 34 26 21 24 27 25 25 27 28 26 22
25 25 27 26 28 33 39 44 50 47 48 51 54 57 58 60 58 62 63 58 55 55 52 53 51 48 46 44 38 44 51 48 41 31 30 29 22 23 23 22 23 24 22
25 22 22 25 31 38 45 47 47 53 56 58 57 57 56 55 54 56 59 58 57 54 51 52 49 44 40 35 38 45 29 31 33 32 31 32 31 24 22 20 23 25 19
21 20 25 31 37 41 44 48 54 59 61 63 58 57 56 55 51 50 56 53 56 57 56 54 47 42 36 28 23 8 31 47 45 26 29 27 17 24 17 19 24 23 20
Wind_Direction_850mb
9 2 359 357 358 354 347 347 347 341 326 305 277 269 267 279 272 254 247 257 261 282 309 318 319 312 305 287 272 269 272 266 264 266 261 257 256 259 261 261 259 260 263
17 13 7 3 360 357 358 354 351 349 341 323 301 268 272 282 250 241 242 258 272 293 304 309 311 314 308 301 292 279 272 274 267 261 263 261 257 257 259 260 260 259 259
17 14 12 6 0 2 3 1 357 354 349 336 314 276 260 252 230 226 234 246 270 289 297 300 302 304 304 304 296 288 284 283 281 268 265 263 261 256 255 259 260 258 256
12 12 10 7 1 1 5 2 1 4 360 355 345 219 192 191 206 224 249 270 286 294 298 300 300 298 296 295 298 295 292 290 281 278 272 268 265 262 260 259 260 261 259
2 6 7 5 0 2 5 8 6 6 9 10 31 143 183 200 220 252 277 291 299 305 305 305 303 295 293 291 294 295 291 292 290 286 275 275 276 274 268 264 258 261 262
349 355 360 3 360 0 6 11 12 10 12 2 17 195 227 241 255 279 290 300 309 313 310 307 308 295 285 287 290 295 289 291 300 306 299 292 285 279 274 272 272 266 261
334 342 352 358 358 359 2 4 6 15 17 14 336 283 277 278 274 300 295 305 313 314 312 311 310 305 289 288 287 287 282 279 290 300 307 306 303 296 287 281 271 270 267
320 329 338 351 356 359 358 357 4 12 13 17 12 352 331 317 297 292 275 287 305 307 306 306 301 295 293 286 283 281 275 271 273 281 300 307 304 301 307 296 293 277 271
312 317 321 339 350 359 357 358 359 2 7 11 21 27 347 340 333 338 314 308 316 312 300 303 297 292 282 285 286 280 268 264 264 271 284 294 305 306 310 301 292 295 278
313 312 311 320 339 348 354 351 356 2 1 351 357 359 356 343 337 324 323 334 342 337 306 298 297 289 280 282 285 281 270 266 264 267 275 284 285 291 299 319 300 283 287
317 314 319 306 322 330 337 343 335 339 342 348 331 325 323 315 314 302 311 319 322 323 328 300 300 288 286 282 282 278 272 272 271 268 270 281 284 282 286 286 318 293 267
318 318 313 312 310 314 322 324 329 323 319 320 321 319 311 300 303 296 301 309 311 319 312 310 295 286 284 284 281 276 275 275 273 267 271 280 283 277 276 284 291 298 297
328 320 316 322 323 310 309 312 313 311 309 308 307 304 298 298 292 297 293 299 301 309 309 305 291 295 281 280 279 276 275 274 273 267 270 279 278 278 276 277 282 299 277
331 324 321 322 322 315 311 308 306 306 306 304 302 300 299 292 289 290 288 290 293 294 292 297 295 289 288 284 280 278 276 273 270 265 266 273 275 272 274 275 276 274 305
337 330 326 323 320 316 315 312 308 309 307 305 302 302 300 299 294 294 292 290 286 285 288 290 284 283 290 288 287 285 273 278 267 266 269 267 267 267 266 268 272 274 272
331 327 326 321 320 318 316 312 310 312 309 307 304 302 299 296 291 291 289 285 282 285 275 273 278 279 291 291 278 280 276 271 270 267 269 267 264 264 264 264 264 265 267
322 321 322 320 319 319 318 313 311 310 308 307 305 305 307 308 306 308 303 294 285 282 281 286 278 278 278 282 276 267 272 271 267 265 264 265 261 264 261 263 263 260 261
323 320 316 314 314 314 314 311 309 308 306 307 304 301 309 311 315 313 313 309 300 302 292 294 295 291 276 265 270 268 264 268 263 260 263 263 261 258 260 258 258 254 253
316 318 319 318 316 314 311 311 311 310 312 322 321 315 313 317 321 324 320 316 308 302 293 290 299 303 289 283 274 257 258 260 264 255 259 260 255 256 257 256 257 256 257
320 320 320 319 320 320 321 328 335 335 332 331 326 321 318 320 321 317 314 314 313 310 309 292 282 299 291 283 295 241 255 254 254 247 250 251 256 251 252 254 258 255 256
321 322 324 328 333 336 335 335 337 337 334 333 329 325 321 319 316 316 318 316 314 313 313 306 300 286 289 280 282 243 244 247 243 242 238 242 241 242 252 254 259 257 254
331 337 339 338 338 344 348 344 342 341 338 334 329 325 323 322 320 316 316 319 318 314 313 309 305 296 298 289 277 246 259 250 228 235 231 234 240 237 233 250 254 253 255
346 349 354 359 356 355 350 345 341 336 334 336 337 334 331 330 328 322 321 320 319 318 319 316 303 299 298 311 303 265 248 239 222 224 218 221 228 233 237 258 262 246 252
9 5 358 1 358 352 343 336 333 337 341 343 342 341 339 338 336 331 329 328 324 324 327 325 316 307 291 296 297 294 258 234 220 226 226 226 223 235 236 255 244 235 243
2 3 6 3 354 346 341 341 347 351 352 350 350 348 343 340 339 333 329 329 327 326 327 329 332 317 305 292 287 283 211 220 216 215 224 227 233 234 230 236 233 225 242
13 17 5 355 351 349 349 351 352 352 352 351 352 357 2 355 338 339 335 329 329 330 329 329 335 341 331 313 260 260 272 223 232 217 235 212 225 218 219 223 206 220 224